Erie, PA

2:12 AM EDT on May 25, 2018 (GMT -0400)
Erie International

Weather History for KERI - September, 2014

Change the Weather History Date:

Tuesday, September 2, 2014

  Actual Average Record
Temperature  
Mean Temperature 72 °F 68 °F  
Max Temperature 79 °F 76 °F 93 °F (1953)
Min Temperature 65 °F 60 °F 46 °F (1970)
Degree Days  
Heating Degree Days 0 1  
Month to date heating degree days 0 2  
Since 1 July heating degree days 18 20  
Cooling Degree Days 7 4  
Month to date cooling degree days 20 8  
Year to date cooling degree days 536 566  
Growing Degree Days 24 (Base 50)    
Moisture  
Dew Point 66 °F    
Average Humidity 75    
Maximum Humidity 87    
Minimum Humidity 62    
Precipitation  
Precipitation 0.43 in 0.13 in 1.38 in (1980)
Month to date precipitation 0.45 0.26  
Year to date precipitation 28.16 26.09  
Snow  
Snow 0.00 in 0.00 in - ()
Month to date snowfall 0.0 0.0  
Since 1 July snowfall 0.0 0.0  
Since 1 September snowfall 0.0 0.0  
Snow Depth 0.00 in    
Sea Level Pressure  
Sea Level Pressure 29.89 in    
Wind  
Wind Speed 7 mph (SW)    
Max Wind Speed 17 mph    
Max Gust Speed 25 mph    
Visibility 9 miles    
Events Fog , Rain    
T = Trace of Precipitation, MM = Missing Value Source: NWS Daily Summary

Daily Weather History Graph

Daily Weather History Graph

Search for Another Location

Airport or City:

Astronomy

Sep. 02, 2014 Rise Set
Actual Time 6:47 AM EDT 7:52 PM EDT
Civil Twilight 6:18 AM EDT 8:21 PM EDT
Nautical Twilight 5:44 AM EDT 8:55 PM EDT
Astronomical Twilight 5:08 AM EDT 9:31 PM EDT
Moon 2:37 PM EDT (9/2) No Moon Set
Length of Visible Light 14h 02m
Length of Day
13h 05m
First Quarter, 52% of the Moon is Illuminated
Sep 2
First Quarter
Sep 8
Full
Sep 15
Last Quarter
Sep 24
New
Oct 1
First Quarter

Hourly Weather History & Observations

Time (EDT) Temp. Dew Point Humidity Pressure Visibility Wind Dir Wind Speed Gust Speed Precip Events Conditions
12:51 AM 73.9 °F 70.0 °F 87% 29.86 in 10.0 mi SSW 8.1 mph - 0.00 in   Mostly Cloudy
1:51 AM 75.0 °F 70.0 °F 84% 29.86 in 10.0 mi SSW 10.4 mph - N/A   Overcast
2:51 AM 75.0 °F 69.1 °F 82% 29.85 in 10.0 mi SSW 12.7 mph - N/A   Scattered Clouds
3:51 AM 73.9 °F 69.1 °F 85% 29.85 in 10.0 mi SW 11.5 mph 17.3 mph N/A   Partly Cloudy
4:51 AM 73.4 °F 69.8 °F 88% 29.88 in 10.0 mi SSW 9.2 mph - N/A   Mostly Cloudy
5:07 AM 73.4 °F 69.8 °F 88% 29.89 in 10.0 mi SW 10.4 mph - N/A   Mostly Cloudy
5:37 AM 73.4 °F 69.8 °F 88% 29.88 in 10.0 mi SW 8.1 mph - N/A   Mostly Cloudy
5:51 AM 73.9 °F 69.1 °F 85% 29.87 in 10.0 mi SW 5.8 mph - N/A   Scattered Clouds
6:51 AM 73.0 °F 68.0 °F 84% 29.88 in 10.0 mi SSW 5.8 mph - N/A   Clear
7:51 AM 73.0 °F 68.0 °F 84% 29.90 in 10.0 mi SSW 6.9 mph - N/A   Clear
8:51 AM 75.0 °F 69.1 °F 82% 29.89 in 10.0 mi South 12.7 mph - N/A   Mostly Cloudy
9:51 AM 77.0 °F 68.0 °F 74% 29.89 in 10.0 mi SW 12.7 mph - N/A   Mostly Cloudy
10:03 AM 77.0 °F 66.2 °F 69% 29.91 in 10.0 mi SW 9.2 mph 19.6 mph N/A   Mostly Cloudy
10:11 AM 78.8 °F 68.0 °F 69% 29.91 in 10.0 mi SW 12.7 mph - N/A   Mostly Cloudy
10:25 AM 77.0 °F 66.2 °F 69% 29.91 in 10.0 mi SW 15.0 mph - N/A   Mostly Cloudy
10:49 AM 78.8 °F 66.2 °F 65% 29.90 in 10.0 mi WSW 8.1 mph - N/A   Mostly Cloudy
10:51 AM 78.8 °F 66.2 °F 65% 29.90 in 10.0 mi SW 6.9 mph - N/A   Scattered Clouds
11:51 AM 78.1 °F 64.9 °F 64% 29.87 in 10.0 mi WSW 6.9 mph - N/A   Partly Cloudy
12:51 PM 75.0 °F 66.9 °F 76% 29.86 in 10.0 mi West 5.8 mph - 0.00 in   Overcast
1:42 PM 71.6 °F 66.2 °F 83% 29.88 in 2.5 mi West 16.1 mph 25.3 mph 0.01 in Rain Rain
1:46 PM 69.8 °F 66.2 °F 88% 29.88 in 0.5 mi WSW 16.1 mph 25.3 mph 0.09 in Fog , Rain Heavy Rain
1:51 PM 69.1 °F 64.9 °F 87% 29.88 in 0.5 mi WSW 12.7 mph 23.0 mph 0.20 in Fog , Rain Heavy Rain
2:01 PM 68.0 °F 64.4 °F 88% 29.88 in 1.0 mi WSW 6.9 mph 17.3 mph 0.22 in Rain Rain
2:04 PM 68.0 °F 64.4 °F 88% 29.87 in 2.5 mi Variable 4.6 mph - 0.23 in Rain Light Rain
2:07 PM 68.0 °F 64.4 °F 88% 29.86 in 5.0 mi SW 5.8 mph - 0.23 in Rain Light Rain
2:51 PM 71.1 °F 66.0 °F 84% 29.85 in 10.0 mi SSW 9.2 mph - 0.23 in   Mostly Cloudy
3:51 PM 73.0 °F 64.9 °F 76% 29.85 in 10.0 mi WSW 5.8 mph - N/A   Mostly Cloudy
4:51 PM 73.0 °F 66.9 °F 81% 29.86 in 10.0 mi West 12.7 mph 16.1 mph N/A   Mostly Cloudy
5:02 PM 71.6 °F 64.4 °F 78% 29.88 in 10.0 mi West 11.5 mph 23.0 mph N/A   Overcast
5:51 PM 69.1 °F 62.1 °F 78% 29.86 in 10.0 mi SW 6.9 mph - 0.00 in   Scattered Clouds
6:51 PM 71.1 °F 64.0 °F 78% 29.88 in 10.0 mi West 6.9 mph - N/A   Mostly Cloudy
7:51 PM 70.0 °F 64.9 °F 84% 29.89 in 10.0 mi Calm Calm - N/A   Clear
8:12 PM 71.6 °F 66.2 °F 83% 29.91 in 10.0 mi SW 4.6 mph - N/A   Mostly Cloudy
8:37 PM 69.8 °F 64.4 °F 83% 29.92 in 10.0 mi SW 4.6 mph - N/A   Partly Cloudy
8:51 PM 69.1 °F 64.9 °F 87% 29.91 in 10.0 mi SSW 4.6 mph - N/A   Scattered Clouds
9:03 PM 69.8 °F 64.4 °F 83% 29.92 in 10.0 mi SSW 3.5 mph - N/A   Mostly Cloudy
9:51 PM 69.1 °F 64.0 °F 84% 29.92 in 10.0 mi SSW 4.6 mph - N/A   Mostly Cloudy
10:04 PM 68.0 °F 64.4 °F 88% 29.93 in 10.0 mi SSW 4.6 mph - N/A   Mostly Cloudy
10:27 PM 69.8 °F 64.4 °F 83% 29.93 in 10.0 mi SSW 4.6 mph - N/A   Mostly Cloudy
10:51 PM 68.0 °F 64.4 °F 88% 29.94 in 10.0 mi SSW 4.6 mph - N/A   Partly Cloudy
11:10 PM 68.0 °F 64.4 °F 88% 29.95 in 10.0 mi SSW 4.6 mph - N/A   Partly Cloudy
11:51 PM 68.0 °F 64.0 °F 87% 29.95 in 10.0 mi SSW 3.5 mph - N/A   Clear